Regional Weather Roundup
Issued by NWS

Home | Current Version | Previous Version | Graphics & Text | Print | Product List | Glossary On
Versions: 1 2 3 4 5 6 7 8 9 10 11 12 13 14 15 16 17 18 19 20 21 22 23 24 25 26 27
000
ASUS45 KPSR 230310
RWRAZ

ARIZONA HOURLY REGIONAL WEATHER ROUNDUP
NATIONAL WEATHER SERVICE PHOENIX AZ
800 PM MST SAT APR 22 2017

NOTE: FAIR INDICATES FEW OR NO CLOUDS BELOW 12,000 FEET WITH NO
SIGNIFICANT WEATHER AND/OR OBSTRUCTIONS TO VISIBILITY.

AZZ001>003-036-230400-
NORTHWEST ARIZONA

CITY           SKY/WX    TMP DP  RH WIND       PRES   REMARKS
BULLHEAD CITY  PTCLDY    86  21   9 CALM      29.78R
KINGMAN        PTCLDY    70  25  18 CALM      29.94R
$$

AZZ004>008-015-016-018-230400-
NORTH CENTRAL ARIZONA

CITY           SKY/WX    TMP DP  RH WIND       PRES   REMARKS
GRAND CANYON   CLEAR     55  23  28 E6        30.13S
WILLIAMS       CLEAR     55  25  30 S5        30.13R
PRESCOTT       CLEAR     67  22  18 S7        30.04R
FLAGSTAFF      CLEAR     52  22  30 E3        30.15R
PAYSON         PTCLDY    70  21  16 W5        30.08R
PAGE           MOCLDY    64  18  17 N3        30.04S
$$

AZZ009>014-017-230400-
NORTHEAST ARIZONA

CITY           SKY/WX    TMP DP  RH WIND       PRES   REMARKS
WINSLOW        PTCLDY    58  16  19 CALM      30.05R
SAINT JOHNS    PTCLDY    58  15  18 CALM      30.09R
WINDOW ROCK    CLEAR     54  16  22 NE3       30.16R
SHOW LOW       PTCLDY    57  18  21 CALM      30.15R
$$

AZZ540-542>544-546-548-230400-
GREATER PHOENIX AREA

CITY           SKY/WX    TMP DP  RH WIND       PRES   REMARKS
PHOENIX        MOCLDY    88  25  10 SW6       29.77R
BUCKEYE        PTCLDY    81  32  17 CALM      29.79R
LUKE AFB       PTCLDY    87  27  11 S3        29.77R
DEER VALLEY    PTCLDY    85  23  10 SW5       29.80R
SCOTTSDALE     PTCLDY    86  27  11 CALM      29.81R
MESA-FALCON    PTCLDY   N/A N/A N/A SW6       29.81R
MESA-GATEWAY   CLEAR     86  23  10 NW3       29.81R
CHANDLER       CLEAR     88  19   8 W6        29.79R
$$

AZZ539-553-230400-
SOUTHWEST MARICOPA COUNTY AND PINAL COUNTY

CITY           SKY/WX    TMP DP  RH WIND       PRES   REMARKS
CASA GRANDE    PTCLDY    83  20   9 NW6       29.82R
GILA BEND      CLEAR     85  17   8 SW6       29.76S
$$

AZZ503-504-507>509-230400-
SOUTHEAST ARIZONA

CITY           SKY/WX    TMP DP  RH WIND       PRES   REMARKS
TUCSON         CLEAR     84  16   8 N8        29.89R
DAVIS-MONTHAN  CLEAR     83  16   8 NW10      29.88R
RYAN FIELD     CLEAR     82  18   9 N5        29.88R
NOGALES        CLEAR     73  12   9 CALM      29.96R
SIERRA VISTA   CLEAR     72  10   9 W7        30.03R
DOUGLAS        CLEAR     74  10   8 N7        29.96R
SAFFORD        CLEAR     77  13   9 NW10      29.88R
$$

AZZ532-230400-
SOUTHWEST ARIZONA

CITY           SKY/WX    TMP DP  RH WIND       PRES   REMARKS
YUMA           PTCLDY    89  32  13 SW3       29.74R
$$

CAZ041-043-047-048-061-525>527-560>570-230400-
SOUTHERN CALIFORNIA

CITY           SKY/WX    TMP DP  RH WIND       PRES   REMARKS
DOWNTOWN L.A.  PTCLDY    73  49  42 CALM      29.82S
L.A. AIRPORT   PTCLDY    66  52  60 W15       29.83S
SAN DIEGO      PTCLDY    71  57  61 S6        29.87S
BURBANK        PTCLDY    81  37  20 E6        29.84S
ONTARIO        PTCLDY    79  38  22 W9        29.85R
RIVERSIDE      CLEAR     77  45  32 W7        29.85R
PALM SPRINGS   CLEAR     92  29  10 E7        29.76R
EL CENTRO NAS  PTCLDY    89  28  11 S5        29.74R
IMPERIAL       PTCLDY    88  35  15 SW6       29.72S
BLYTHE         CLEAR     86  32  14 S5        29.75R
NEEDLES        CLEAR     85  23  10 N5        29.78S
$$

NVZ020-UTZ003-230400-
SOUTHERN NEVADA-UTAH

CITY           SKY/WX    TMP DP  RH WIND       PRES   REMARKS
LAS VEGAS      MOCLDY    80  19  10 CALM      29.86R
SALT LAKE CITY CLOUDY    56  39  53 N10       30.02F
$$

NMZ009-TXZ055-230400-
NEW MEXICO-WEST TEXAS

CITY           SKY/WX    TMP DP  RH WIND       PRES   REMARKS
ALBUQUERQUE    MOCLDY    58  30  34 E25       30.16R
EL PASO        CLEAR     64  33  31 E16G25    30.12R
$$


........................KEY........................
SKY/WX - SKY CONDITION/WEATHER
TMP    - TEMPERATURE IN FAHRENHEIT
DP     - DEW POINT IN FAHRENHEIT
RH     - RELATIVE HUMIDITY IN PERCENT
WIND   - DIRECTION AND SPEED IN MILES PER HOUR (MPH)
VRB    - VARIABLE WIND DIRECTION
PRES   - MEAN SEA LEVEL PRESSURE IN INCHES OF MERCURY
         F - FALLING PRESSURE   R - RISING PRESSURE
         S - STEADY PRESSURE
VSB    - VISIBILITY IN MILES
HX     - HEAT INDEX IN FAHRENHEIT
WCI    - WIND CHILL INDEX IN FAHRENHEIT
TC     - TEMPERATURE IN CELSIUS WHICH IS ALSO KNOWN AS
         TEMPERATURE IN CENTIGRADE
AFB    - AIR FORCE BASE
         LUKE AFB IS LUKE AIR FORCE BASE
         DAVIS-MONTHAN IS DAVIS-MONTHAN AIR FORCE BASE
NAS    - NAVAL AIR STATION
         EL CENTRO NAS IS EL CENTRO NAVAL AIR STATION
N/A    - NOT AVAILABLE





USA.gov is the U.S. government's official web portal to all federal, state and local government web resources and services.